Tracking 19827 objects as of 21-Aug-2019
HD Live streaming from Space Station
objects crossing your sky now

FR 1

Track FR 1 now!
10-day predictions
FR 1 is classified as:


NORAD ID: 1814
Int'l Code: 1965-101A
Perigee: 675.7 km
Apogee: 682.6 km
Inclination: 75.9 °
Period: 98.2 minutes
Semi major axis: 7050 km
RCS: 0.5793 m2 (medium)
Launch date: December 6, 1965
Source: France (FR)
Launch site: AIR FORCE WESTERN TEST RANGE (AFWTR)
aabbcc
Your satellite tracking list
Your tracking list is empty




NASA's NSSDC Master Catalog

Two Line Element Set (TLE):
1  1814U 65101A   19232.88679652 +.00000042 +00000-0 +10495-4 0  9994
2  1814 075.8685 307.9480 0004911 129.0019 231.1598 14.66587140690346
Source of the keplerian elements: AFSPC